Regional Weather Roundup
Issued by NWS Raleigh/Durham, NC

Home | Current Version | Previous Version | Text Only | Print | Product List | Glossary On
Versions: 1 2 3 4 5 6 7 8 9 10 11 12 13 14 15 16 17 18 19 20 21 22 23 24 25 26 27 28 29 30 31 32 33 34 35 36 37 38 39 40 41 42 43 44 45 46 47 48 49 50
000
ASUS42 KRAH 260710
RWRRAH
NORTH CAROLINA WEATHER ROUNDUP
NATIONAL WEATHER SERVICE RALEIGH NC
300 AM EDT MON JUN 26 2017

NOTE: "FAIR" INDICATES FEW OR NO CLOUDS BELOW 12,000 FEET WITH NO
SIGNIFICANT WEATHER AND/OR OBSTRUCTIONS TO VISIBILITY.

NCZ001-053-055-056-065-067-260800-
WESTERN NORTH CAROLINA

CITY           SKY/WX    TMP DP  RH WIND       PRES   REMARKS
ASHEVILLE      PTCLDY    54  52  93 N7        30.22F
JEFFERSON      CLEAR     59  42  52 W6        30.22F
HICKORY        CLEAR     62  57  83 W7        30.15F
RUTHERFORDTON  NOT AVBL
MOUNT AIRY     CLEAR     57  52  82 CALM      30.18F
BOONE          NOT AVBL
$$

NCZ021-022-025-041-071-084-088-260800-
CENTRAL NORTH CAROLINA

CITY           SKY/WX    TMP DP  RH WIND       PRES   REMARKS
CHARLOTTE      PTCLDY    65  59  81 N5        30.12F
GREENSBORO     CLEAR     64  57  78 N3        30.12F
WINSTON-SALEM  CLEAR     60  53  77 N3        30.14F
RALEIGH-DURHAM PTCLDY    67  60  78 NE5       30.10S
FORT BRAGG     PTCLDY    71  65  82 NW3       30.08S
FAYETTEVILLE   PTCLDY    74  65  73 CALM      30.08S
BURLINGTON     CLEAR     63  60  90 CALM      30.11F
LAURINBURG     PTCLDY    71  67  87 N5        30.09F
$$

NCZ011-015-027-028-043-044-047-080-103-260800-
NORTHEASTERN NORTH CAROLINA

CITY           SKY/WX    TMP DP  RH WIND       PRES   REMARKS
ROCKY MT-WILSO CLEAR     68  63  84 NW5       30.08S
GREENVILLE     CLEAR     70  64  83 CALM      30.08S
WASHINGTON     CLOUDY   N/A N/A N/A CALM      30.07S
ELIZABETH CITY CLEAR     68  63  84 W5        30.04S
MANTEO         CLOUDY    76  61  59 N5        30.04F
CAPE HATTERAS  CLOUDY    79  66  64 N7        30.04S
$$

NCZ078-087-090-091-093-098-101-260800-
SOUTHEASTERN NORTH CAROLINA

CITY           SKY/WX    TMP DP  RH WIND       PRES   REMARKS
LUMBERTON      CLOUDY    74  68  81 N5        30.07F
GOLDSBORO      PTCLDY    70  70  98 CALM      30.06S
KINSTON        PTCLDY    68  66  94 CALM      30.08S
KENANSVILLE    CLOUDY    70  68  94 CALM      30.09R
NEW BERN       CLOUDY    73  68  84 NW5       30.08R
CHERRY POINT   CLOUDY    73  68  84 CALM      30.07R
BEAUFORT       PTCLDY    77  72  84 N5        30.06R
JACKSONVILLE   PTCLDY    73  73 100 CALM      30.06S
WILMINGTON     CLOUDY    73  71  93 NW3       30.06F
$$




USA.gov is the U.S. government's official web portal to all federal, state and local government web resources and services.